{"data":{"norad_id":37387,"intl_designator":"2011-015A","name":"RESOURCESAT-2","alt_names":[],"object_type":"PAYLOAD","status":"ACTIVE","operator":null,"country":"IND","launch_date":"2011-04-20","launch_site_code":"SRILR","launch_vehicle":null,"mission":null,"orbit_class":"UNKNOWN","rcs_meters":5.5918,"size_class":null,"mass_kg":null,"dimensions":null,"purposes":["earth_obs"],"wikipedia_slug":null,"has_3d_model":false,"image_url":null,"decayed_at":null,"tle_current":{"epoch":"2026-05-25T03:27:44.788032Z","epoch_age_seconds":66087,"freshness":"FRESH","line1":"1 37387U 11015A   26145.14426838  .00000062  00000+0  48603-4 0  9992","line2":"2 37387  98.7649 212.7439 0010525 328.8661  31.1891 14.21606709782903","mean_motion":14.21606709,"eccentricity":0.0010525,"inclination_deg":98.7649,"raan_deg":212.7439,"arg_perigee_deg":328.8661,"mean_anomaly_deg":31.1891,"bstar":4.8603e-5,"rev_number":78290,"period_min":101.29383822428,"perigee_km":812.34818945848,"apogee_km":827.50010817674,"semimajor_km":7198.0611488176,"source":"CELESTRAK","updated_at":"2026-05-25T13:38:12.778835Z"}}}